| time (UTC) | temp C | wind direction | speed KPH | gust KPH | rain 1hr cm | rain 24hr cm | rain mn cm | humidity % | barometer mb |
| 20260505173904 | 22 | 175 | 8.0 | 20.9 | 0.00 | 0.00 | 0.00 | 43 | 1004.2 |
| 20260505173404 | 22 | 167 | 6.4 | 16.1 | 0.00 | 0.00 | 0.00 | 42 | 1004.2 |
| 20260505172904 | 23 | 189 | 9.7 | 19.3 | 0.00 | 0.00 | 0.00 | 42 | 1004.2 |
| 20260505171404 | 23 | 173 | 3.2 | 11.3 | 0.00 | 0.00 | 0.00 | 43 | 1004.1 |
| 20260505170904 | 23 | 171 | 8.0 | 22.5 | 0.00 | 0.00 | 0.00 | 42 | 1004.1 |
| 20260505170404 | 23 | 194 | 9.7 | 25.7 | 0.00 | 0.00 | 0.00 | 42 | 1004.1 |
| 20260505165904 | 23 | 165 | 8.0 | 19.3 | 0.00 | 0.00 | 0.00 | 41 | 1004.2 |
| 20260505165404 | 24 | 183 | 12.9 | 22.5 | 0.00 | 0.00 | 0.00 | 41 | 1004.2 |
| 20260505164904 | 24 | 182 | 4.8 | 20.9 | 0.00 | 0.00 | 0.00 | 40 | 1004.0 |
| 20260505164404 | 24 | 178 | 4.8 | 19.3 | 0.00 | 0.00 | 0.00 | 40 | 1003.9 |
| 20260505163904 | 24 | 152 | 8.0 | 14.5 | 0.00 | 0.00 | 0.00 | 39 | 1003.9 |
| 20260505163404 | 24 | 191 | 8.0 | 24.1 | 0.00 | 0.00 | 0.00 | 39 | 1003.9 |
| 20260505162905 | 25 | 175 | 8.0 | 14.5 | 0.00 | 0.00 | 0.00 | 39 | 1004.0 |
| 20260505162404 | 25 | 213 | 11.3 | 22.5 | 0.00 | 0.00 | 0.00 | 38 | 1004.0 |
| 20260505161904 | 25 | 176 | 11.3 | 35.4 | 0.00 | 0.00 | 0.00 | 38 | 1004.1 |
| 20260505161405 | 25 | 160 | 6.4 | 19.3 | 0.00 | 0.00 | 0.00 | 38 | 1004.1 |
| 20260505160405 | 25 | 153 | 4.8 | 14.5 | 0.00 | 0.00 | 0.00 | 38 | 1004.1 |
| 20260505152904 | 26 | 183 | 9.7 | 29.0 | 0.00 | 0.00 | 0.00 | 36 | 1004.4 |
| 20260505152404 | 26 | 193 | 9.7 | 24.1 | 0.00 | 0.00 | 0.00 | 36 | 1004.4 |
| 20260505151904 | 26 | 46 | 6.4 | 19.3 | 0.00 | 0.00 | 0.00 | 36 | 1004.3 |
| 20260505151404 | 26 | 169 | 4.8 | 14.5 | 0.00 | 0.00 | 0.00 | 37 | 1004.5 |
| 20260505150904 | 26 | 137 | 4.8 | 14.5 | 0.00 | 0.00 | 0.00 | 37 | 1004.6 |
| 20260505150405 | 26 | 181 | 9.7 | 22.5 | 0.00 | 0.00 | 0.00 | 37 | 1004.6 |
| 20260505140405 | 27 | 196 | 16.1 | 37.0 | 0.00 | 0.00 | 0.00 | 25 | 1005.1 |
| 20260505124404 | 24 | 161 | 4.8 | 14.5 | 0.00 | 0.00 | 0.00 | 31 | 1005.8 |
| 20260505123904 | 24 | 158 | 8.0 | 19.3 | 0.00 | 0.00 | 0.00 | 32 | 1005.9 |
| 20260505123404 | 24 | 159 | 8.0 | 14.5 | 0.00 | 0.00 | 0.00 | 32 | 1006.0 |
| 20260505122904 | 24 | 158 | 8.0 | 19.3 | 0.00 | 0.00 | 0.00 | 33 | 1005.9 |
| 20260505121404 | 24 | 179 | 4.8 | 24.1 | 0.00 | 0.00 | 0.00 | 32 | 1006.1 |
| 20260505120904 | 24 | 155 | 9.7 | 24.1 | 0.00 | 0.00 | 0.00 | 31 | 1006.1 |
| 20260505120404 | 24 | 108 | 9.7 | 22.5 | 0.00 | 0.00 | 0.00 | 30 | 1006.1 |
| 20260505115404 | 25 | 194 | 9.7 | 16.1 | 0.00 | 0.00 | 0.00 | 30 | 1006.2 |
| 20260505114404 | 25 | 132 | 4.8 | 19.3 | 0.00 | 0.00 | 0.00 | 30 | 1006.1 |
| 20260505113905 | 25 | 135 | 3.2 | 8.0 | 0.00 | 0.00 | 0.00 | 31 | 1006.2 |
| 20260505113404 | 25 | 104 | 4.8 | 20.9 | 0.00 | 0.00 | 0.00 | 31 | 1006.3 |
| 20260505112904 | 25 | 205 | 8.0 | 24.1 | 0.00 | 0.00 | 0.00 | 30 | 1006.3 |
| 20260505112404 | 25 | 121 | 8.0 | 22.5 | 0.00 | 0.00 | 0.00 | 32 | 1006.3 |
| 20260505111904 | 25 | 136 | 8.0 | 32.2 | 0.00 | 0.00 | 0.00 | 32 | 1006.3 |
| 20260505111404 | 25 | 123 | 6.4 | 22.5 | 0.00 | 0.00 | 0.00 | 31 | 1006.4 |
| 20260505110904 | 25 | 128 | 4.8 | 27.4 | 0.00 | 0.00 | 0.00 | 31 | 1006.4 |
| 20260505110404 | 25 | 170 | 8.0 | 20.9 | 0.00 | 0.00 | 0.00 | 30 | 1006.4 |
| 20260505101905 | 25 | 164 | 11.3 | 22.5 | 0.00 | 0.00 | 0.00 | 30 | 1007.0 |
| 20260505101405 | 25 | 185 | 9.7 | 24.1 | 0.00 | 0.00 | 0.00 | 31 | 1006.9 |
| 20260505100904 | 25 | 149 | 4.8 | 19.3 | 0.00 | 0.00 | 0.00 | 31 | 1006.9 |
| 20260505095905 | 24 | 93 | 4.8 | 19.3 | 0.00 | 0.00 | 0.00 | 31 | 1006.9 |
| 20260505095405 | 24 | 158 | 4.8 | 16.1 | 0.00 | 0.00 | 0.00 | 32 | 1006.8 |
| 20260505094404 | 23 | 136 | 6.4 | 20.9 | 0.00 | 0.00 | 0.00 | 32 | 1007.1 |
| 20260505093904 | 23 | 193 | 4.8 | 16.1 | 0.00 | 0.00 | 0.00 | 33 | 1007.1 |
| 20260505093405 | 23 | 102 | 4.8 | 12.9 | 0.00 | 0.00 | 0.00 | 32 | 1007.1 |
| 20260505092904 | 23 | 156 | 6.4 | 20.9 | 0.00 | 0.00 | 0.00 | 33 | 1007.3 |
| 20260505092405 | 23 | 174 | 9.7 | 19.3 | 0.00 | 0.00 | 0.00 | 34 | 1007.3 |
| 20260505091905 | 23 | 151 | 6.4 | 14.5 | 0.00 | 0.00 | 0.00 | 34 | 1007.3 |
| 20260505091405 | 22 | 142 | 4.8 | 14.5 | 0.00 | 0.00 | 0.00 | 33 | 1007.4 |
| 20260505090904 | 22 | 197 | 6.4 | 19.3 | 0.00 | 0.00 | 0.00 | 34 | 1007.5 |
| 20260505090404 | 22 | 160 | 3.2 | 14.5 | 0.00 | 0.00 | 0.00 | 34 | 1007.5 |
| 20260505085904 | 22 | 164 | 6.4 | 11.3 | 0.00 | 0.00 | 0.00 | 34 | 1007.5 |
| 20260505085404 | 22 | 147 | 4.8 | 11.3 | 0.00 | 0.00 | 0.00 | 34 | 1007.4 |
| 20260505084904 | 22 | 161 | 11.3 | 27.4 | 0.00 | 0.00 | 0.00 | 33 | 1007.5 |
| 20260505084419 | 22 | 142 | 9.7 | 22.5 | 0.00 | 0.00 | 0.00 | 33 | 1007.4 |
| 20260505083904 | 22 | 159 | 6.4 | 20.9 | 0.00 | 0.00 | 0.00 | 36 | 1007.5 |
| 20260505083404 | 22 | 196 | 4.8 | 11.3 | 0.00 | 0.00 | 0.00 | 37 | 1007.5 |
| 20260505082904 | 22 | 91 | 8.0 | 16.1 | 0.00 | 0.00 | 0.00 | 36 | 1007.5 |
| 20260505081904 | 22 | 160 | 3.2 | 14.5 | 0.00 | 0.00 | 0.00 | 37 | 1007.6 |
| 20260505081404 | 22 | 186 | 4.8 | 19.3 | 0.00 | 0.00 | 0.00 | 37 | 1007.6 |
| 20260505080904 | 22 | 156 | 6.4 | 24.1 | 0.00 | 0.00 | 0.00 | 36 | 1007.6 |
| 20260505080404 | 22 | 169 | 6.4 | 19.3 | 0.00 | 0.00 | 0.00 | 36 | 1007.6 |
| 20260505075904 | 22 | 131 | 9.7 | 20.9 | 0.00 | 0.00 | 0.00 | 35 | 1007.6 |
| 20260505075405 | 22 | 174 | 9.7 | 24.1 | 0.00 | 0.00 | 0.00 | 36 | 1007.5 |
| 20260505074904 | 21 | 155 | 1.6 | 9.7 | 0.00 | 0.00 | 0.00 | 39 | 1007.5 |
| 20260505073404 | 20 | 44 | 3.2 | 9.7 | 0.00 | 0.00 | 0.00 | 42 | 1007.4 |
| 20260505072904 | 20 | 83 | 1.6 | 11.3 | 0.00 | 0.00 | 0.00 | 44 | 1007.5 |
| 20260505072404 | 20 | 56 | 6.4 | 12.9 | 0.00 | 0.00 | 0.00 | 43 | 1007.4 |
| 20260505071404 | 19 | 324 | 4.8 | 19.3 | 0.00 | 0.00 | 0.00 | 43 | 1007.6 |
| 20260505070904 | 19 | 51 | 1.6 | 12.9 | 0.00 | 0.00 | 0.00 | 44 | 1007.6 |
| 20260505070405 | 19 | 45 | 4.8 | 12.9 | 0.00 | 0.00 | 0.00 | 43 | 1007.6 |
| 20260505065904 | 19 | 42 | 9.7 | 22.5 | 0.00 | 0.00 | 0.00 | 44 | 1007.6 |
| 20260505064904 | 18 | 61 | 3.2 | 9.7 | 0.00 | 0.00 | 0.00 | 44 | 1007.7 |
| 20260505064404 | 18 | 29 | 3.2 | 11.3 | 0.00 | 0.00 | 0.00 | 45 | 1007.8 |
| 20260505063904 | 18 | 94 | 1.6 | 11.3 | 0.00 | 0.00 | 0.00 | 45 | 1007.9 |
| 20260505063404 | 18 | 90 | 1.6 | 8.0 | 0.00 | 0.00 | 0.00 | 45 | 1008.0 |
| 20260505062905 | 18 | 125 | 1.6 | 8.0 | 0.00 | 0.00 | 0.00 | 45 | 1007.9 |
| 20260505062404 | 18 | 37 | 1.6 | 8.0 | 0.00 | 0.00 | 0.00 | 45 | 1008.0 |
| 20260505061904 | 18 | 257 | 1.6 | 8.0 | 0.00 | 0.00 | 0.00 | 45 | 1008.0 |
| 20260505061404 | 18 | 63 | 4.8 | 19.3 | 0.00 | 0.00 | 0.00 | 45 | 1007.9 |
| 20260505060905 | 18 | 137 | 1.6 | 8.0 | 0.00 | 0.00 | 0.00 | 46 | 1007.9 |
| 20260505060404 | 18 | 278 | 3.2 | 9.7 | 0.00 | 0.00 | 0.00 | 45 | 1007.9 |
| 20260505055904 | 17 | 58 | 3.2 | 19.3 | 0.00 | 0.00 | 0.00 | 45 | 1007.9 |
| 20260505055404 | 17 | 78 | 0.0 | 12.9 | 0.00 | 0.00 | 0.00 | 46 | 1007.8 |
| 20260505053404 | 17 | 31 | 4.8 | 11.3 | 0.00 | 0.00 | 0.00 | 48 | 1007.6 |
| 20260505052905 | 17 | 62 | 3.2 | 12.9 | 0.00 | 0.00 | 0.00 | 48 | 1007.7 |
| 20260505051905 | 17 | 110 | 3.2 | 11.3 | 0.00 | 0.00 | 0.00 | 47 | 1007.7 |
| 20260505051404 | 17 | 106 | 3.2 | 12.9 | 0.00 | 0.00 | 0.00 | 47 | 1007.7 |
| 20260505050904 | 16 | 72 | 3.2 | 11.3 | 0.00 | 0.00 | 0.00 | 47 | 1007.8 |
| 20260505050404 | 16 | 27 | 3.2 | 11.3 | 0.00 | 0.00 | 0.00 | 47 | 1007.8 |
| 20260505041404 | 15 | 87 | 3.2 | 12.9 | 0.00 | 0.00 | 0.00 | 49 | 1008.0 |
| 20260505040905 | 15 | 112 | 3.2 | 11.3 | 0.00 | 0.00 | 0.00 | 49 | 1008.0 |
| 20260505035904 | 15 | 67 | 3.2 | 12.9 | 0.00 | 0.00 | 0.00 | 49 | 1008.0 |
| 20260505035404 | 14 | 72 | 3.2 | 12.9 | 0.00 | 0.00 | 0.00 | 49 | 1008.1 |
| 20260505034905 | 14 | 61 | 3.2 | 9.7 | 0.00 | 0.00 | 0.00 | 49 | 1008.1 |
| 20260505034404 | 14 | 94 | 3.2 | 9.7 | 0.00 | 0.00 | 0.00 | 49 | 1008.2 |
| 20260505033920 | 14 | 40 | 0.0 | 3.2 | 0.00 | 0.00 | 0.00 | 49 | 1008.3 |
| 20260505033405 | 14 | 48 | 1.6 | 4.8 | 0.00 | 0.00 | 0.00 | 49 | 1008.3 |
| 20260505032904 | 14 | 66 | 1.6 | 4.8 | 0.00 | 0.00 | 0.00 | 49 | 1008.4 |
| 20260505032418 | 14 | 82 | 3.2 | 9.7 | 0.00 | 0.00 | 0.00 | 49 | 1008.4 |
| 20260505031904 | 14 | 51 | 1.6 | 9.7 | 0.00 | 0.00 | 0.00 | 49 | 1008.4 |
| 20260505030904 | 14 | 80 | 3.2 | 9.7 | 0.00 | 0.00 | 0.00 | 49 | 1008.5 |
| 20260505025904 | 14 | 79 | 1.6 | 8.0 | 0.00 | 0.00 | 0.00 | 50 | 1008.5 |
| 20260505025404 | 13 | 56 | 4.8 | 11.3 | 0.00 | 0.00 | 0.00 | 50 | 1008.5 |
| 20260505024904 | 13 | 78 | 4.8 | 11.3 | 0.00 | 0.00 | 0.00 | 51 | 1008.6 |
| 20260505024405 | 13 | 34 | 1.6 | 3.2 | 0.00 | 0.00 | 0.00 | 51 | 1008.6 |
| 20260505023904 | 13 | 84 | 3.2 | 4.8 | 0.00 | 0.00 | 0.00 | 51 | 1008.6 |
| 20260505023405 | 13 | 55 | 1.6 | 4.8 | 0.00 | 0.00 | 0.00 | 51 | 1008.7 |
| 20260505022904 | 13 | 65 | 3.2 | 4.8 | 0.00 | 0.00 | 0.00 | 52 | 1008.8 |
| 20260505022404 | 13 | 76 | 3.2 | 8.0 | 0.00 | 0.00 | 0.00 | 52 | 1008.8 |
| 20260505021904 | 13 | 56 | 3.2 | 8.0 | 0.00 | 0.00 | 0.00 | 52 | 1008.9 |
| 20260505021404 | 13 | 66 | 3.2 | 8.0 | 0.00 | 0.00 | 0.00 | 52 | 1008.9 |
| 20260505020905 | 13 | 81 | 4.8 | 11.3 | 0.00 | 0.00 | 0.00 | 52 | 1009.0 |
| 20260505015904 | 13 | 57 | 3.2 | 9.7 | 0.00 | 0.00 | 0.00 | 52 | 1009.1 |
| 20260505015404 | 13 | 83 | 3.2 | 4.8 | 0.00 | 0.00 | 0.00 | 53 | 1009.2 |
| 20260505014904 | 13 | 72 | 3.2 | 4.8 | 0.00 | 0.00 | 0.00 | 53 | 1009.2 |
| 20260505014404 | 13 | 71 | 3.2 | 4.8 | 0.00 | 0.00 | 0.00 | 53 | 1009.2 |
| 20260505013905 | 13 | 56 | 1.6 | 4.8 | 0.00 | 0.00 | 0.00 | 53 | 1009.3 |
| 20260505013404 | 13 | 81 | 3.2 | 4.8 | 0.00 | 0.00 | 0.00 | 53 | 1009.4 |
| 20260505012904 | 13 | 76 | 1.6 | 4.8 | 0.00 | 0.00 | 0.00 | 53 | 1009.5 |
| 20260505012404 | 13 | 80 | 1.6 | 4.8 | 0.00 | 0.00 | 0.00 | 52 | 1009.4 |
| 20260505011905 | 13 | 81 | 1.6 | 3.2 | 0.00 | 0.00 | 0.00 | 52 | 1009.5 |
| 20260505011404 | 13 | 82 | 1.6 | 4.8 | 0.00 | 0.00 | 0.00 | 52 | 1009.5 |
| 20260505010904 | 13 | 82 | 1.6 | 4.8 | 0.00 | 0.00 | 0.00 | 52 | 1009.5 |
| 20260505010404 | 13 | 82 | 1.6 | 4.8 | 0.00 | 0.00 | 0.00 | 52 | 1009.6 |
| 20260505005905 | 13 | 61 | 1.6 | 3.2 | 0.00 | 0.00 | 0.00 | 51 | 1009.7 |
| 20260505005404 | 13 | 84 | 1.6 | 4.8 | 0.00 | 0.00 | 0.00 | 52 | 1009.8 |
| 20260505004904 | 13 | 83 | 1.6 | 4.8 | 0.00 | 0.00 | 0.00 | 51 | 1009.8 |
| 20260505004404 | 13 | 79 | 0.0 | 3.2 | 0.00 | 0.00 | 0.00 | 51 | 1009.8 |
| 20260505003904 | 13 | 90 | 1.6 | 9.7 | 0.00 | 0.00 | 0.00 | 51 | 1009.8 |
| 20260505002905 | 13 | 92 | 1.6 | 8.0 | 0.00 | 0.00 | 0.00 | 52 | 1009.9 |
| 20260505002404 | 13 | 73 | 3.2 | 4.8 | 0.00 | 0.00 | 0.00 | 51 | 1009.9 |
| 20260505001904 | 13 | 92 | 3.2 | 4.8 | 0.00 | 0.00 | 0.00 | 51 | 1010.0 |
| 20260505001404 | 13 | 74 | 3.2 | 4.8 | 0.00 | 0.00 | 0.00 | 51 | 1010.1 |
| 20260505000905 | 13 | 86 | 0.0 | 4.8 | 0.00 | 0.00 | 0.00 | 52 | 1010.2 |
| 20260505000405 | 13 | 71 | 1.6 | 4.8 | 0.00 | 0.00 | 0.00 | 52 | 1010.2 |
| 20260504235904 | 13 | 88 | 1.6 | 4.8 | 0.00 | 0.00 | 0.00 | 52 | 1010.2 |
| 20260504235404 | 13 | 64 | 1.6 | 4.8 | 0.00 | 0.00 | 0.00 | 51 | 1010.2 |
| 20260504234904 | 13 | 88 | 1.6 | 3.2 | 0.00 | 0.00 | 0.00 | 50 | 1010.3 |
| 20260504234404 | 13 | 87 | 1.6 | 4.8 | 0.00 | 0.00 | 0.00 | 50 | 1010.3 |
| 20260504233904 | 13 | 63 | 1.6 | 4.8 | 0.00 | 0.00 | 0.00 | 50 | 1010.4 |
| 20260504233404 | 13 | 59 | 1.6 | 4.8 | 0.00 | 0.00 | 0.00 | 49 | 1010.3 |
| 20260504232904 | 13 | 59 | 1.6 | 3.2 | 0.00 | 0.00 | 0.00 | 50 | 1010.4 |
| 20260504232404 | 14 | 59 | 3.2 | 4.8 | 0.00 | 0.00 | 0.00 | 49 | 1010.4 |
| 20260504231904 | 13 | 59 | 0.0 | 37.0 | 0.00 | 0.00 | 0.00 | 49 | 1010.4 |
| 20260504231404 | 13 | 55 | 1.6 | 4.8 | 0.00 | 0.00 | 0.00 | 49 | 1010.5 |
| 20260504230904 | 13 | 54 | 1.6 | 4.8 | 0.00 | 0.00 | 0.00 | 49 | 1010.5 |
| 20260504230404 | 13 | 65 | 1.6 | 4.8 | 0.00 | 0.00 | 0.00 | 49 | 1010.5 |
| 20260504225904 | 13 | 65 | 1.6 | 3.2 | 0.00 | 0.00 | 0.00 | 49 | 1010.6 |
| 20260504225405 | 13 | 65 | 1.6 | 3.2 | 0.00 | 0.00 | 0.00 | 49 | 1010.6 |
| 20260504224904 | 13 | 65 | 0.0 | 3.2 | 0.00 | 0.00 | 0.00 | 50 | 1010.7 |
| 20260504224404 | 13 | 83 | 0.0 | 3.2 | 0.00 | 0.00 | 0.00 | 50 | 1010.8 |
| 20260504223904 | 13 | 78 | 1.6 | 4.8 | 0.00 | 0.00 | 0.00 | 50 | 1010.8 |
| 20260504222905 | 13 | 69 | 1.6 | 4.8 | 0.00 | 0.00 | 0.00 | 51 | 1010.8 |
| 20260504222404 | 13 | 61 | 0.0 | 3.2 | 0.00 | 0.00 | 0.00 | 51 | 1010.9 |
| 20260504221904 | 13 | 65 | 1.6 | 3.2 | 0.00 | 0.00 | 0.00 | 51 | 1011.0 |
| 20260504221404 | 13 | 107 | 0.0 | 3.2 | 0.00 | 0.00 | 0.00 | 52 | 1011.0 |
| 20260504220904 | 13 | 107 | 1.6 | 3.2 | 0.00 | 0.00 | 0.00 | 52 | 1011.1 |
| 20260504220418 | 13 | 83 | 1.6 | 3.2 | 0.00 | 0.00 | 0.00 | 53 | 1011.1 |
| 20260504215404 | 13 | 80 | 0.0 | 3.2 | 0.00 | 0.00 | 0.00 | 52 | 1011.1 |
| 20260504214404 | 13 | 74 | 0.0 | 4.8 | 0.00 | 0.00 | 0.00 | 52 | 1011.1 |
| 20260504213404 | 13 | 74 | 1.6 | 3.2 | 0.00 | 0.00 | 0.00 | 52 | 1011.1 |
| 20260504212904 | 13 | 74 | 1.6 | 3.2 | 0.00 | 0.00 | 0.00 | 52 | 1011.1 |
| 20260504212404 | 13 | 73 | 3.2 | 4.8 | 0.00 | 0.00 | 0.00 | 52 | 1011.2 |
| 20260504211904 | 13 | 73 | 3.2 | 4.8 | 0.00 | 0.00 | 0.00 | 52 | 1011.2 |
| 20260504210904 | 13 | 71 | 1.6 | 4.8 | 0.00 | 0.00 | 0.00 | 51 | 1011.3 |
| 20260504210405 | 13 | 74 | 3.2 | 4.8 | 0.00 | 0.00 | 0.00 | 51 | 1011.3 |
| 20260504205905 | 14 | 74 | 3.2 | 4.8 | 0.00 | 0.00 | 0.00 | 51 | 1011.3 |
| 20260504205404 | 14 | 74 | 1.6 | 3.2 | 0.00 | 0.00 | 0.00 | 50 | 1011.3 |
| 20260504204904 | 14 | 67 | 1.6 | 4.8 | 0.00 | 0.00 | 0.00 | 50 | 1011.3 |
| 20260504204404 | 14 | 66 | 1.6 | 4.8 | 0.00 | 0.00 | 0.00 | 50 | 1011.3 |
| 20260504203904 | 14 | 66 | 3.2 | 4.8 | 0.00 | 0.00 | 0.00 | 50 | 1011.3 |
| 20260504203404 | 14 | 66 | 3.2 | 4.8 | 0.00 | 0.00 | 0.00 | 49 | 1011.2 |
| 20260504202904 | 15 | 69 | 4.8 | 4.8 | 0.00 | 0.00 | 0.00 | 49 | 1011.2 |
| 20260504202404 | 15 | 66 | 4.8 | 4.8 | 0.00 | 0.00 | 0.00 | 49 | 1011.1 |
| 20260504201904 | 15 | 56 | 3.2 | 8.0 | 0.00 | 0.00 | 0.00 | 50 | 1011.2 |
| 20260504201404 | 15 | 57 | 3.2 | 4.8 | 0.00 | 0.00 | 0.00 | 49 | 1011.2 |
| 20260504200904 | 15 | 59 | 3.2 | 4.8 | 0.00 | 0.00 | 0.00 | 49 | 1011.2 |
| 20260504200404 | 15 | 59 | 3.2 | 4.8 | 0.00 | 0.00 | 0.00 | 48 | 1011.2 |
| 20260504195904 | 15 | 65 | 3.2 | 4.8 | 0.00 | 0.00 | 0.00 | 48 | 1011.1 |
| 20260504195404 | 15 | 65 | 3.2 | 4.8 | 0.00 | 0.00 | 0.00 | 47 | 1011.2 |
| 20260504194904 | 15 | 65 | 3.2 | 4.8 | 0.00 | 0.00 | 0.00 | 47 | 1011.2 |
| 20260504194404 | 15 | 63 | 3.2 | 4.8 | 0.00 | 0.00 | 0.00 | 47 | 1011.1 |
| 20260504193404 | 16 | 61 | 3.2 | 4.8 | 0.00 | 0.00 | 0.00 | 47 | 1011.2 |
| 20260504192904 | 16 | 59 | 3.2 | 4.8 | 0.00 | 0.00 | 0.00 | 46 | 1011.2 |
| 20260504192404 | 16 | 57 | 4.8 | 4.8 | 0.00 | 0.00 | 0.00 | 46 | 1011.2 |
| 20260504191905 | 16 | 44 | 3.2 | 4.8 | 0.00 | 0.00 | 0.00 | 45 | 1011.1 |
| 20260504190905 | 17 | 61 | 3.2 | 4.8 | 0.00 | 0.00 | 0.00 | 45 | 1011.1 |
| 20260504190404 | 17 | 61 | 1.6 | 4.8 | 0.00 | 0.00 | 0.00 | 44 | 1011.1 |
| 20260504185904 | 18 | 61 | 1.6 | 4.8 | 0.00 | 0.00 | 0.00 | 44 | 1011.0 |
| 20260504184904 | 18 | 61 | 3.2 | 4.8 | 0.00 | 0.00 | 0.00 | 42 | 1011.0 |
| 20260504184404 | 18 | 63 | 1.6 | 4.8 | 0.00 | 0.00 | 0.00 | 42 | 1011.0 |
| 20260504183904 | 19 | 63 | 1.6 | 4.8 | 0.00 | 0.00 | 0.00 | 42 | 1010.9 |
| 20260504183405 | 20 | 63 | 3.2 | 4.8 | 0.00 | 0.00 | 0.00 | 41 | 1010.9 |
| 20260504182405 | 20 | 77 | 3.2 | 4.8 | 0.00 | 0.00 | 0.00 | 39 | 1010.8 |
| 20260504181905 | 21 | 80 | 1.6 | 4.8 | 0.00 | 0.00 | 0.00 | 39 | 1010.8 |
| 20260504181405 | 21 | 95 | 3.2 | 4.8 | 0.00 | 0.00 | 0.00 | 38 | 1010.8 |
| 20260504180905 | 21 | 103 | 3.2 | 4.8 | 0.00 | 0.00 | 0.00 | 37 | 1010.8 |
| 20260504180404 | 22 | 103 | 1.6 | 4.8 | 0.00 | 0.00 | 0.00 | 36 | 1010.8 |
| 20260504175904 | 22 | 103 | 1.6 | 3.2 | 0.00 | 0.00 | 0.00 | 35 | 1010.7 |
| 20260504174905 | 22 | 103 | 1.6 | 3.2 | 0.00 | 0.00 | 0.00 | 31 | 1010.6 |
| 20260504174404 | 22 | 103 | 0.0 | 1.6 | 0.00 | 0.00 | 0.00 | 31 | 1010.7 |